User: anonymous   Login
Location: Unspecified
(0.0000°N, 0.0000°E)
Time: 23:19:57
(UTC+00:00)
Language:

DMSP 5D-3 F18 (USA 210) - Orbit

View from above orbital plane
View from above orbital plane
View from above satellite
View from above satellite

Ground track
Ground track

The orbit data is extracted from the following two-line orbital elements,

1 35951U 09057A   17338.73256644 0.00000060  00000-0  32122-4 0    06
2 35951  98.6153 347.4200 0010806 120.7480 239.2519 14.13127766    03
Epoch (UTC): 04 December 2017 17:34:53
Eccentricity: 0.0010806
inclination: 98.6153°
perigee height: 841 km
apogee height: 856 km
right ascension of ascending node: 347.4200°
argument of perigee: 120.7480°
revolutions per day: 14.13127766
mean anomaly at epoch: 239.2519°
orbit number at epoch: 0

The dashed part of the orbit path shows where the satellite is in the earth's shadow,  

DLR